Weather History for Lexington, KY

Change the Weather History Date:

Saturday, December 8, 2012

  Actual Average Record
Temperature  
Mean Temperature 56 °F 38 °F  
Max Temperature 60 °F 46 °F 68 °F (1922)
Min Temperature 51 °F 30 °F -4 °F (1917)
Degree Days  
Heating Degree Days 9 27  
Month to date heating degree days 95 209  
Since 1 July heating degree days 1157 1096  
Cooling Degree Days 0 0  
Month to date cooling degree days 0 0  
Year to date cooling degree days 1359 1190  
Growing Degree Days 6 (Base 50)    
Moisture  
Dew Point 53 °F    
Average Humidity 89    
Maximum Humidity 100    
Minimum Humidity 77    
Precipitation  
Precipitation 0.25 in 0.13 in 2.93 in (1978)
Month to date precipitation 1.99 1.04  
Year to date precipitation 38.06 42.28  
Snow  
Snow 0.00 in 0.00 in 9.40 in (1917)
Month to date snowfall 0.0 0.4  
Since 1 July snowfall 0.0 0.7  
Snow Depth 0.00 in    
Sea Level Pressure  
Sea Level Pressure 29.92 in    
Wind  
Wind Speed 8 mph (WSW)    
Max Wind Speed 15 mph    
Max Gust Speed 20 mph    
Visibility 8 miles    
Events Rain    
T = Trace of Precipitation, MM = Missing Value Source: NWS Daily Summary

Daily Weather History Graph

Daily Weather History Graph

Search for Another Location

Airport:

Trip Planner

Search our weather history database for the weather conditions in past years. The results will help you decide how hot, cold, wet, or windy it might be!

Date:

Astronomy

Dec. 08, 2012 Rise Set
Actual Time 7:42 AM EST 5:18 PM EST
Civil Twilight 7:13 AM EST 5:48 PM EST
Nautical Twilight 6:40 AM EST 6:20 PM EST
Astronomical Twilight 6:08 AM EST 6:52 PM EST
Moon 2:10 AM EST (12/8) 1:44 PM EST (12/8)
Length of Visible Light 10h 34m
Length of Day
9h 36m
Waning Crescent, 28% of the Moon is Illuminated
Dec 8
Waning Crescent
Dec 13
New
Dec 20
First Quarter
Dec 28
Full
Jan 4
Last Quarter

Hourly Weather History & Observations

Time (EST) Temp. Dew Point Humidity Pressure Visibility Wind Dir Wind Speed Gust Speed Precip Events Conditions
12:54 AM 55.0 °F 54.0 °F 96% 29.89 in 10.0 mi SW 8.1 mph - N/A   Overcast
1:36 AM 55.4 °F 53.6 °F 94% 29.88 in 10.0 mi SSW 8.1 mph - N/A   Overcast
1:54 AM 55.0 °F 54.0 °F 96% 29.88 in 10.0 mi SSW 8.1 mph - N/A   Overcast
2:54 AM 55.9 °F 54.0 °F 93% 29.88 in 9.0 mi SSW 8.1 mph - N/A   Overcast
3:54 AM 55.0 °F 54.0 °F 96% 29.88 in 8.0 mi South 5.8 mph - N/A   Overcast
4:09 AM 55.4 °F 53.6 °F 94% 29.88 in 8.0 mi South 5.8 mph - N/A   Overcast
4:41 AM 55.4 °F 53.6 °F 94% 29.87 in 6.0 mi South 6.9 mph - 0.00 in Rain Light Rain
4:54 AM 55.0 °F 54.0 °F 96% 29.86 in 4.0 mi South 6.9 mph - 0.04 in Rain Rain
5:54 AM 55.4 °F 55.4 °F 100% 29.87 in 9.0 mi SSW 10.4 mph - N/A   Overcast
6:54 AM 55.9 °F 55.0 °F 97% 29.88 in 10.0 mi SSW 11.5 mph - N/A   Overcast
7:54 AM 57.0 °F 55.0 °F 93% 29.89 in 9.0 mi SSW 12.7 mph - N/A   Overcast
8:54 AM 57.0 °F 55.0 °F 93% 29.90 in 8.0 mi SSW 8.1 mph - N/A   Overcast
9:54 AM 57.0 °F 55.9 °F 96% 29.91 in 6.0 mi SW 11.5 mph - 0.01 in Rain Light Rain
10:34 AM 57.2 °F 55.4 °F 94% 29.92 in 7.0 mi SW 9.2 mph - 0.00 in   Mostly Cloudy
10:54 AM 57.9 °F 57.0 °F 97% 29.91 in 7.0 mi SW 6.9 mph - 0.00 in   Overcast
11:31 AM 59.0 °F 57.2 °F 94% 29.92 in 8.0 mi SW 11.5 mph - N/A   Overcast
11:42 AM 59.0 °F 57.2 °F 94% 29.92 in 8.0 mi SW 10.4 mph - N/A   Overcast
11:52 AM 59.0 °F 57.2 °F 94% 29.91 in 7.0 mi SW 11.5 mph - N/A   Overcast
11:54 AM 59.0 °F 55.9 °F 90% 29.90 in 7.0 mi SW 9.2 mph - N/A   Overcast
12:31 PM 60.8 °F 57.2 °F 88% 29.91 in 9.0 mi WSW 8.1 mph - 0.00 in   Overcast
12:54 PM 57.0 °F 54.0 °F 89% 29.90 in 10.0 mi WNW 8.1 mph - 0.00 in   Overcast
1:54 PM 57.0 °F 55.0 °F 93% 29.91 in 10.0 mi NW 6.9 mph - N/A   Overcast
2:01 PM 57.2 °F 55.4 °F 94% 29.92 in 10.0 mi WNW 5.8 mph - N/A   Overcast
2:10 PM 57.2 °F 53.6 °F 88% 29.91 in 10.0 mi NW 4.6 mph - N/A   Overcast
2:38 PM 57.2 °F 53.6 °F 88% 29.92 in 10.0 mi WNW 4.6 mph - N/A   Overcast
2:54 PM 57.0 °F 54.0 °F 89% 29.92 in 10.0 mi Calm Calm - N/A   Overcast
3:54 PM 57.0 °F 53.1 °F 87% 29.92 in 10.0 mi NNW 5.8 mph - N/A   Overcast
4:54 PM 55.0 °F 48.9 °F 80% 29.94 in 10.0 mi North 3.5 mph - N/A   Overcast
5:54 PM 54.0 °F 50.0 °F 86% 29.96 in 10.0 mi North 3.5 mph - N/A   Overcast
6:54 PM 53.1 °F 50.0 °F 89% 29.97 in 10.0 mi North 6.9 mph - N/A   Overcast
7:54 PM 52.0 °F 50.0 °F 93% 29.98 in 10.0 mi NE 6.9 mph - 0.00 in   Overcast
8:54 PM 52.0 °F 50.0 °F 93% 29.99 in 10.0 mi NE 11.5 mph - 0.03 in   Overcast
9:10 PM 51.8 °F 50.0 °F 94% 29.99 in 10.0 mi NE 9.2 mph - N/A   Overcast
9:54 PM 51.1 °F 50.0 °F 96% 29.99 in 6.0 mi NE 9.2 mph - 0.02 in Rain Light Rain
10:02 PM 51.8 °F 50.0 °F 94% 30.00 in 6.0 mi NNE 8.1 mph - N/A Rain Light Rain
10:15 PM 51.8 °F 50.0 °F 94% 30.00 in 7.0 mi NE 9.2 mph - 0.00 in   Overcast
10:54 PM 51.1 °F 50.0 °F 96% 29.99 in 5.0 mi ENE 8.1 mph - 0.00 in   Overcast
11:49 PM 51.8 °F 50.0 °F 94% 30.00 in 3.0 mi ENE 9.2 mph - 0.06 in Rain Rain
11:54 PM 51.1 °F 50.0 °F 96% 30.00 in 3.0 mi ENE 6.9 mph - 0.07 in Rain Heavy Rain